Skip Page Navigation
NASA JPL Caltech
NASA Logo - Jet Propulsion Laboratory + View the NASA Portal
+ Near-Earth Object (NEO) Program
Search JPL
JPL Home Earth Solar System Stars & Galaxies Technology
JPL Solar System Dynamics
BODIES ORBITS EPHEMERIDES TOOLS PHYSICAL DATA DISCOVERY FAQ SITE MAP
JPL Small-Body Database Browser
Search: [ help ]  
300163 (2006 VW139)
Classification: Main-belt Asteroid          SPK-ID: 2300163
Ephemeris | Orbit Diagram | Orbital Elements | Physical Parameters | Discovery Circumstances | Close-Approach Data ]

[ show orbit diagram ]
Orbital Elements at Epoch 2457600.5 (2016-Jul-31.0) TDB
Reference: JPL 4 (heliocentric ecliptic J2000)
 Element Value Uncertainty (1-sigma)   Units 
e .2010766985052657 1.3023e-07  
a 3.049143503878633 4.5684e-08 au
q 2.43603179484994 3.8355e-07 au
i 3.240029229285162 1.1207e-05 deg
node 83.19126148577425 0.00020943 deg
peri 281.0648059663687 0.0002139 deg
M 341.4346096112056 3.9468e-05 deg
tp 2457700.792119279003
(2016-Nov-08.29211928)
0.00021483 JED
period 1944.756462661478
5.32
4.3706e-05
1.197e-07
d
yr
n .185113152680992 4.1602e-09 deg/d
Q 3.662255212907327 5.487e-08 au
  Orbit Determination Parameters
   # obs. used (total)      150  
   data-arc span      5373 days (14.71 yr)  
   first obs. used      2000-09-03  
   last obs. used      2015-05-21  
   planetary ephem.      DE431  
   SB-pert. ephem.      SB431-BIG16  
   condition code      0  
   fit RMS      .57941  
   data source      ORB  
   producer      Otto Matic  
   solution date      2015-Jun-05 03:21:18  

Additional Information
 Earth MOID = 1.43553 au 
 Jupiter MOID = 1.79432 au 
 T_jup = 3.204 
[ show covariance matrix ]

Ephemeris | Orbit Diagram | Orbital Elements | Physical Parameters | Discovery Circumstances | Close-Approach Data ]

Physical Parameter Table
Parameter Symbol Value Units Sigma Reference Notes
absolute magnitude H 16.1 mag n/a MPO251846  

300163 (2006 VW139)          Discovered 2006-Nov-15 by Spacewatch at Kitt Peak
Reference: 20111012/Numbers.arcLast Updated: 2011-10-13

[ show close-approach data ]
Alternate Designations
 2006 VW139 = 288P 
Ephemeris | Orbit Diagram | Orbital Elements | Physical Parameters | Discovery Circumstances | Close-Approach Data ]
ABOUT SSD CREDITS/AWARDS PRIVACY/COPYRIGHT GLOSSARY LINKS
FirstGov 2016-May-01 21:15 UT
(server date/time)  
NASA Home Page
Site Manager:   Ryan S. Park
Webmaster  Alan B. Chamberlin